Location: Peebles
(55.6412°N, 3.1714°W)
Time: 15:53:50
(UTC+00:00)

MOZHAYETS 4 - Pass Details

Date: 13 December 2023
Orbit: 654 x 672 km, 98.3° (Epoch: 03 March)

Event Time Altitude Azimuth Distance (km) Brightness Sun altitude
Exits shadow 18:54:59 - 0° (N) 2,781 10.9 -25.7°
Reaches altitude 10° 18:58:40 10° 324° (NW) 2,120 10.7 -26.2°
Maximum altitude 18:59:12 10° 317° (NW) 2,108 10.7 -26.2°
Drops below altitude 10° 18:59:43 10° 311° (NW) 2,119 10.8 -26.3°
Sets 19:04:17 0° 269° (W) 3,027 12.4 -27.0°
